星链-6240 (STARLINK-6240 )

导读

STARLINK-6240是美国SpaceX公司星链(Starlink)星座的一员,于2023年6月22日发射入轨。星链是全球规模最大的低轨卫星互联网星座,旨在为全球偏远、缺乏基础设施的地区提供高速低延迟宽带服务。 作为星链卫星,STARLINK-6240运行在近地轨道,配备相控阵天线与氪离子推进系统,支持轨道机动与避碰,承担全球互联网覆盖任务,助力星链实现全球组网,为用户提供50-200Mbps下载速度,20-40毫秒低延迟网络服务。

基本信息
目录编号:
57084
目录名称:
STARLINK-6240
国际标识:
2023-088AN
轨道中心:
EARTH
卫星名称:
星链-6240
卫星全名:
星链-6240 (STARLINK-6240 )
卫星状态:
在轨 (已飞行1088 天)
发射日期:
2023-06-22 UTC
国别 :
美国 (US)
星等 :
--
轨道信息
数据来源 国际轨道数据
星历时间: 2026-06-14T08:15:09+0800
20小时前
查看轨道信息
半长轴: 6861.212km
偏心率: 0.0000608
轨道倾角: 43.000°
近地点辐角 283.036°
升交点赤经 271.968°
平近点角 77.042°
近地点: 482.657km
远地点: 483.493km
周期: 94.267分钟
每日圈数: 15.275716
详细信息
固有亮度:
5
最大亮度:
2.4
卫星平台:
Starlink v1.5
覆盖范围:
全球
运营商:
太空探索技术公司
运营商所在国:
美国
制造商(研发单位):
太空探索技术公司
制造商所在国:
美国
使用方式:
暂无
卫星简介
星链(Starlink)计划是由太空探索技术公司(SpaceX)提出的一个巨型低轨卫星互联网星座项目,计划在2019年至2024年间在太空搭建由约1.2万颗卫星组成的“星链”网络,其中1584颗将部署在地球上空550千米处的近地轨道,并从2020年开始工作。该卫星仍在工作。
2D轨道图
3D轨道图
轨道高度分析图
轨道倾角分析图
轨道综合分析图
查看轨道综合分析图